Find Starlink 31022

NORAD ID: 58633 Int'l Des: 2023-203 Owner: SPXS Country: US Constellation: starlink operational
LEOCIRCULAR

Current View

Loading 3D Globe...

About Starlink 31022

Starlink 31022 (NORAD 58633) is a starlink constellation satellite (v2 mini) launched Dec 23, 2023 by SPXS of US. It operates in LEO, CIRCULAR orbit with a mass of 730.00 kg.

About Starlink 31022

Description loading...

Upcoming Passes

Passes for default location (London). Set your location on the main map for personalized predictions.

Altitude History

Loading altitude history...

Two-Line Element Set

1 58633U 23203R 26165.90354394 -.00000472 00000-0 -76323-5 0 9993
2 58633 43.0015 241.9748 0001092 278.2074 81.8654 15.27572072139617
Epoch: Jun 14, 2026 • Age: 22 hours

Current Status

Altitude 482.3 km
Velocity 7.63 km/s
Sub-Earth Point 16.03°N, 54.14°E
Launch Date Dec 23, 2023
Age 2.4 years
Type internet

Technical Details

Classification Payload
Mass 730.00 kg
Dry Mass 700.00 kg
Total Mass 730.00 kg
Length 0.30 m
Diameter 4.10 m
Span 29.00 m
Shape Box + pan
Manufacturer SPXS
Bus Type Starlink V2M
Phase Status In Orbit
Owner/State SPXS/US

Most Searched